EXU016 EFHK-EFRO

Flight info

Callsign EXU016
Flight time 1h 11m
Altitude 38000
Route TEVRU Y75 NEPIX
Aircraft A320/M-SDE3FGHIRWY/LB1

Departure

Time 2026-04-23 20:17
Airport Helsinki Vantaa Airport (EFHK)

Arrival

Time 2026-04-23 21:29
Airport Rovaniemi Airport (EFRO)
Time Latitude Longitude Altitude Speed Heading
2026-04-23 19:56 60.30910 24.94272 164 ft 0 kts 150°
2026-04-23 20:13 60.30907 24.94270 164 ft 1 kts 176°
2026-04-23 20:13 60.30907 24.94246 164 ft 4 kts 274°
2026-04-23 20:13 60.30944 24.94159 162 ft 12 kts 343°
2026-04-23 20:14 60.30997 24.94032 160 ft 14 kts 306°
2026-04-23 20:14 60.31038 24.93872 159 ft 12 kts 289°
2026-04-23 20:14 60.31043 24.93853 159 ft 0 kts 298°
2026-04-23 20:14 60.31047 24.93839 159 ft 2 kts 298°
2026-04-23 20:15 60.31060 24.93797 159 ft 11 kts 305°
2026-04-23 20:15 60.31157 24.93734 158 ft 15 kts 17°
2026-04-23 20:15 60.31203 24.93797 159 ft 0 kts 44°
2026-04-23 20:16 60.31204 24.93799 159 ft 2 kts 44°
2026-04-23 20:16 60.31362 24.94145 161 ft 75 kts 47°
2026-04-23 20:17 60.31865 24.95256 174 ft 139 kts 47°
2026-04-23 20:17 60.32594 24.96884 546 ft 161 kts 46°
2026-04-23 20:17 60.33347 24.98526 1411 ft 158 kts 44°
2026-04-23 20:17 60.34096 25.00185 2162 ft 160 kts 45°
2026-04-23 20:18 60.34863 25.01959 2688 ft 178 kts 45°
2026-04-23 20:18 60.35735 25.03946 3120 ft 203 kts 44°
2026-04-23 20:18 60.36769 25.06177 3594 ft 230 kts 43°
2026-04-23 20:18 60.37923 25.08595 4189 ft 254 kts 43°
2026-04-23 20:19 60.39150 25.11189 5233 ft 254 kts 37°
2026-04-23 20:19 60.40697 25.12821 6249 ft 254 kts
2026-04-23 20:19 60.42474 25.13028 7215 ft 256 kts 359°
2026-04-23 20:19 60.44247 25.13085 8345 ft 255 kts 359°
2026-04-23 20:20 60.46026 25.13116 9470 ft 256 kts 359°
2026-04-23 20:20 60.47817 25.13142 10471 ft 257 kts 359°
2026-04-23 20:20 60.49605 25.13129 11449 ft 257 kts 354°
2026-04-23 20:20 60.51366 25.12399 12352 ft 264 kts 342°
2026-04-23 20:21 60.53122 25.10820 12667 ft 287 kts 336°
2026-04-23 20:21 60.54969 25.09017 13269 ft 298 kts 336°
2026-04-23 20:21 60.56831 25.07191 14071 ft 301 kts 336°
2026-04-23 20:21 60.58728 25.05336 14887 ft 303 kts 336°
2026-04-23 20:22 60.60645 25.03469 15714 ft 304 kts 336°
2026-04-23 20:22 60.62561 25.01599 16553 ft 305 kts 336°
2026-04-23 20:22 60.64463 24.99740 17360 ft 307 kts 336°
2026-04-23 20:22 60.66395 24.97855 18157 ft 308 kts 336°
2026-04-23 20:23 60.68344 24.95956 18848 ft 310 kts 336°
2026-04-23 20:23 60.70301 24.94048 19535 ft 311 kts 336°
2026-04-23 20:23 60.72234 24.92162 20217 ft 312 kts 337°
2026-04-23 20:23 60.74205 24.90239 20900 ft 313 kts 337°
2026-04-23 20:24 60.76185 24.88299 21561 ft 315 kts 337°
2026-04-23 20:24 60.78141 24.86375 22202 ft 317 kts 338°
2026-04-23 20:24 60.80147 24.84441 22840 ft 317 kts 340°
2026-04-23 20:24 60.82265 24.83221 23449 ft 317 kts 351°
2026-04-23 20:25 60.84480 24.83037 24001 ft 320 kts
2026-04-23 20:25 60.86699 24.83563 24542 ft 322 kts
2026-04-23 20:25 60.88904 24.84097 25056 ft 323 kts
2026-04-23 20:25 60.91140 24.84625 25568 ft 323 kts
2026-04-23 20:26 60.93381 24.85148 26069 ft 324 kts
2026-04-23 20:26 60.95631 24.85671 26554 ft 326 kts
2026-04-23 20:26 60.97896 24.86201 26981 ft 327 kts
2026-04-23 20:26 61.00174 24.86737 27428 ft 329 kts
2026-04-23 20:27 61.02440 24.87275 27883 ft 331 kts
2026-04-23 20:27 61.04745 24.87821 28350 ft 333 kts
2026-04-23 20:27 61.07055 24.88369 28811 ft 335 kts
2026-04-23 20:27 61.09377 24.88925 29253 ft 336 kts
2026-04-23 20:28 61.11692 24.89480 29679 ft 338 kts
2026-04-23 20:28 61.14045 24.90044 30104 ft 340 kts
2026-04-23 20:28 61.16400 24.90611 30450 ft 341 kts
2026-04-23 20:28 61.18747 24.91173 30760 ft 344 kts
2026-04-23 20:29 61.21137 24.91746 31053 ft 346 kts
2026-04-23 20:29 61.23543 24.92324 31340 ft 349 kts
2026-04-23 20:29 61.25966 24.92912 31681 ft 350 kts
2026-04-23 20:29 61.28389 24.93500 32089 ft 349 kts
2026-04-23 20:30 61.30775 24.94080 32483 ft 349 kts
2026-04-23 20:30 61.35602 24.95247 33263 ft 349 kts
2026-04-23 20:30 61.38024 24.95834 33653 ft 350 kts
2026-04-23 20:31 61.40456 24.96431 34007 ft 350 kts
2026-04-23 20:31 61.42858 24.97022 34292 ft 351 kts
2026-04-23 20:31 61.45297 24.97620 34584 ft 353 kts
2026-04-23 20:31 61.47752 24.98219 34836 ft 355 kts
2026-04-23 20:32 61.50220 24.98826 35082 ft 357 kts
2026-04-23 20:32 61.52698 24.99440 35315 ft 359 kts
2026-04-23 20:32 61.55191 25.00056 35544 ft 361 kts
2026-04-23 20:32 61.57665 25.00667 35770 ft 363 kts
2026-04-23 20:33 61.60187 25.01295 35992 ft 365 kts
2026-04-23 20:33 61.62719 25.01625 36202 ft 365 kts 358°
2026-04-23 20:33 61.65264 25.01714 36413 ft 367 kts 358°
2026-04-23 20:33 61.67831 25.01804 36626 ft 368 kts 358°
2026-04-23 20:34 61.70411 25.01892 36838 ft 370 kts 358°
2026-04-23 20:34 61.72961 25.01982 37052 ft 372 kts 359°
2026-04-23 20:34 61.75557 25.02080 37242 ft 374 kts 359°
2026-04-23 20:34 61.78176 25.02182 37481 ft 375 kts 359°
2026-04-23 20:35 61.80791 25.02283 37674 ft 377 kts 359°
2026-04-23 20:35 61.83400 25.02384 37782 ft 379 kts 359°
2026-04-23 20:35 61.88702 25.02590 37819 ft 380 kts 359°
2026-04-23 20:36 61.93977 25.02784 37819 ft 380 kts 359°
2026-04-23 20:36 61.99275 25.02984 37818 ft 380 kts 359°
2026-04-23 20:37 62.03685 25.03155 37818 ft 381 kts 359°
2026-04-23 20:37 62.09904 25.03399 37847 ft 386 kts 359°
2026-04-23 20:38 62.14412 25.03573 37837 ft 387 kts 359°
2026-04-23 20:38 62.19778 25.03778 37831 ft 387 kts 359°
2026-04-23 20:39 62.25192 25.03981 37831 ft 388 kts 359°
2026-04-23 20:39 62.30569 25.04186 37829 ft 388 kts 359°
2026-04-23 20:40 62.35987 25.04401 37823 ft 388 kts 359°
2026-04-23 20:40 62.41364 25.04606 37828 ft 388 kts 359°
2026-04-23 20:41 62.46781 25.04817 37826 ft 389 kts 359°
2026-04-23 20:41 62.52202 25.05033 37830 ft 389 kts 359°
2026-04-23 20:42 62.57579 25.05248 37788 ft 388 kts 359°
2026-04-23 20:42 62.63001 25.05454 37808 ft 388 kts 359°
2026-04-23 20:43 62.68384 25.05673 37822 ft 388 kts 359°
2026-04-23 20:43 62.73804 25.05883 37842 ft 388 kts 359°
2026-04-23 20:44 62.79222 25.06079 37837 ft 389 kts 358°
2026-04-23 20:44 62.84609 25.06290 37833 ft 390 kts 358°
2026-04-23 20:45 62.90044 25.06510 37821 ft 390 kts 359°
2026-04-23 20:45 62.95485 25.06731 37820 ft 390 kts 359°
2026-04-23 20:46 63.00890 25.06951 37824 ft 391 kts 359°
2026-04-23 20:46 63.06330 25.07166 37822 ft 391 kts 359°
2026-04-23 20:47 63.10360 25.07329 37844 ft 391 kts 359°
2026-04-23 20:47 63.15789 25.07551 37827 ft 392 kts 359°
2026-04-23 20:48 63.21272 25.07781 37813 ft 393 kts 359°
2026-04-23 20:48 63.26762 25.08007 37819 ft 394 kts 359°
2026-04-23 20:49 63.32219 25.08232 37784 ft 394 kts 358°
2026-04-23 20:49 63.37707 25.08454 37804 ft 393 kts 358°
2026-04-23 20:50 63.43159 25.08668 37818 ft 393 kts 358°
2026-04-23 20:50 63.48642 25.08880 37809 ft 393 kts 358°
2026-04-23 20:51 63.54087 25.09115 37807 ft 394 kts 358°
2026-04-23 20:51 63.59581 25.09348 37807 ft 394 kts 358°
2026-04-23 20:52 63.65052 25.09566 37809 ft 394 kts 358°
2026-04-23 20:52 63.70548 25.09784 37803 ft 394 kts 358°
2026-04-23 20:53 63.76056 25.10009 37820 ft 395 kts 359°
2026-04-23 20:53 63.81534 25.10240 37792 ft 395 kts 359°
2026-04-23 20:54 63.87033 25.10479 37792 ft 396 kts 359°
2026-04-23 20:54 63.92564 25.10713 37795 ft 397 kts 359°
2026-04-23 20:55 63.98060 25.10947 37793 ft 397 kts 359°
2026-04-23 20:55 64.03610 25.11183 37731 ft 397 kts 359°
2026-04-23 20:56 64.09111 25.11419 37825 ft 396 kts 359°
2026-04-23 20:56 64.14635 25.11650 37808 ft 397 kts 359°
2026-04-23 20:57 64.20139 25.11874 37801 ft 397 kts 359°
2026-04-23 20:57 64.25689 25.12120 37793 ft 397 kts 359°
2026-04-23 20:58 64.31204 25.12362 37796 ft 398 kts 359°
2026-04-23 20:58 64.36754 25.12602 37788 ft 398 kts 359°
2026-04-23 20:59 64.42267 25.12841 37807 ft 398 kts 359°
2026-04-23 20:59 64.47805 25.12976 37783 ft 397 kts 358°
2026-04-23 21:00 64.53308 25.12942 37783 ft 397 kts 358°
2026-04-23 21:00 64.58857 25.12900 37779 ft 398 kts 358°
2026-04-23 21:01 64.64410 25.12883 37775 ft 398 kts 358°
2026-04-23 21:01 64.69922 25.12885 37781 ft 398 kts 358°
2026-04-23 21:02 64.75484 25.12888 37776 ft 398 kts 358°
2026-04-23 21:02 64.81027 25.12898 37732 ft 402 kts 358°
2026-04-23 21:03 64.86640 25.12897 37750 ft 402 kts 358°
2026-04-23 21:03 64.92217 25.12893 37757 ft 403 kts 358°
2026-04-23 21:04 64.97833 25.12911 37764 ft 403 kts 358°
2026-04-23 21:04 65.03445 25.12915 37764 ft 403 kts 358°
2026-04-23 21:05 65.09053 25.12910 37762 ft 403 kts 358°
2026-04-23 21:05 65.14633 25.12915 37604 ft 401 kts 358°
2026-04-23 21:06 65.17424 25.12917 37343 ft 398 kts 358°
2026-04-23 21:06 65.20169 25.12910 37081 ft 395 kts 357°
2026-04-23 21:06 65.22916 25.12894 36670 ft 394 kts 357°
2026-04-23 21:06 65.25673 25.12874 35833 ft 396 kts 356°
2026-04-23 21:07 65.28387 25.12860 35272 ft 390 kts 356°
2026-04-23 21:07 65.31094 25.12854 34607 ft 385 kts 356°
2026-04-23 21:07 65.33745 25.12856 33497 ft 377 kts 355°
2026-04-23 21:07 65.36354 25.12852 32120 ft 370 kts 355°
2026-04-23 21:08 65.38870 25.12843 30877 ft 361 kts 355°
2026-04-23 21:08 65.41357 25.12828 29516 ft 352 kts 355°
2026-04-23 21:08 65.43789 25.12811 28659 ft 346 kts 355°
2026-04-23 21:08 65.46187 25.12793 27966 ft 342 kts 354°
2026-04-23 21:09 65.48573 25.12770 26982 ft 341 kts 354°
2026-04-23 21:09 65.50910 25.12745 26060 ft 338 kts 354°
2026-04-23 21:09 65.53259 25.12722 25162 ft 335 kts 354°
2026-04-23 21:09 65.55589 25.12708 24295 ft 333 kts 354°
2026-04-23 21:10 65.57910 25.12702 23464 ft 331 kts 354°
2026-04-23 21:10 65.60216 25.12692 22506 ft 330 kts 354°
2026-04-23 21:10 65.62506 25.12682 21558 ft 330 kts 354°
2026-04-23 21:10 65.64783 25.12671 20636 ft 333 kts 355°
2026-04-23 21:11 65.67129 25.12654 19746 ft 334 kts 355°
2026-04-23 21:11 65.69452 25.12638 18874 ft 335 kts 356°
2026-04-23 21:11 65.71800 25.12626 18024 ft 337 kts 356°
2026-04-23 21:11 65.74124 25.12616 17058 ft 338 kts 356°
2026-04-23 21:12 65.76491 25.12603 16135 ft 340 kts 356°
2026-04-23 21:12 65.78860 25.12587 15339 ft 339 kts 356°
2026-04-23 21:12 65.81217 25.12577 14571 ft 338 kts 356°
2026-04-23 21:12 65.83562 25.12572 13965 ft 333 kts 356°
2026-04-23 21:13 65.85866 25.12572 13450 ft 327 kts 356°
2026-04-23 21:13 65.88086 25.12566 12914 ft 320 kts 356°
2026-04-23 21:13 65.90287 25.12556 12506 ft 311 kts 356°
2026-04-23 21:13 65.92427 25.12550 12101 ft 303 kts 356°
2026-04-23 21:14 65.94520 25.12540 11708 ft 296 kts 356°
2026-04-23 21:14 65.96535 25.12522 11343 ft 288 kts 356°
2026-04-23 21:14 65.98510 25.12503 11090 ft 279 kts 356°
2026-04-23 21:14 66.00425 25.12487 10829 ft 271 kts 356°
2026-04-23 21:15 66.02280 25.12472 10661 ft 259 kts 357°
2026-04-23 21:15 66.03990 25.12470 10657 ft 232 kts 356°
2026-04-23 21:15 66.05524 25.12470 10657 ft 209 kts 356°
2026-04-23 21:15 66.06939 25.12464 10653 ft 199 kts 356°
2026-04-23 21:16 66.08301 25.12448 10656 ft 197 kts 356°
2026-04-23 21:16 66.09669 25.12537 10653 ft 198 kts
2026-04-23 21:16 66.11037 25.13183 10545 ft 204 kts 10°
2026-04-23 21:16 66.12370 25.14489 10313 ft 206 kts 21°
2026-04-23 21:17 66.13613 25.16214 10182 ft 206 kts 22°
2026-04-23 21:17 66.14870 25.17957 10096 ft 206 kts 22°
2026-04-23 21:17 66.16128 25.19694 9996 ft 207 kts 22°
2026-04-23 21:17 66.17387 25.21427 9893 ft 207 kts 22°
2026-04-23 21:18 66.18634 25.23139 9802 ft 207 kts 22°
2026-04-23 21:18 66.19899 25.24875 9573 ft 209 kts 22°
2026-04-23 21:18 66.21178 25.26633 9216 ft 210 kts 22°
2026-04-23 21:18 66.22452 25.28389 8890 ft 209 kts 22°
2026-04-23 21:19 66.23715 25.30142 8582 ft 207 kts 22°
2026-04-23 21:19 66.24959 25.31870 8278 ft 207 kts 22°
2026-04-23 21:19 66.26217 25.33617 7960 ft 208 kts 23°
2026-04-23 21:19 66.27489 25.35383 7654 ft 209 kts 23°
2026-04-23 21:20 66.28760 25.37149 7341 ft 209 kts 23°
2026-04-23 21:20 66.30016 25.38899 7083 ft 204 kts 23°
2026-04-23 21:20 66.31240 25.40618 6734 ft 200 kts 23°
2026-04-23 21:20 66.32436 25.42296 6431 ft 194 kts 23°
2026-04-23 21:21 66.33567 25.43893 6317 ft 179 kts 23°
2026-04-23 21:21 66.34609 25.45364 6118 ft 170 kts 22°
2026-04-23 21:21 66.35623 25.46789 5888 ft 164 kts 22°
2026-04-23 21:21 66.36604 25.48169 5657 ft 157 kts 22°
2026-04-23 21:22 66.37501 25.49438 5439 ft 143 kts 22°
2026-04-23 21:22 66.38332 25.50613 5218 ft 131 kts 22°
2026-04-23 21:22 66.39115 25.51716 5024 ft 127 kts 21°
2026-04-23 21:22 66.39888 25.52795 4836 ft 127 kts 22°
2026-04-23 21:23 66.40649 25.53860 4650 ft 126 kts 22°
2026-04-23 21:23 66.41403 25.54919 4458 ft 122 kts 22°
2026-04-23 21:23 66.41898 25.55615 4330 ft 119 kts 22°
2026-04-23 21:23 66.42576 25.56763 4149 ft 120 kts 28°
2026-04-23 21:24 66.43455 25.58415 3908 ft 118 kts 29°
2026-04-23 21:24 66.43898 25.59249 3783 ft 117 kts 28°
2026-04-23 21:24 66.44536 25.60449 3620 ft 115 kts 28°
2026-04-23 21:24 66.45179 25.61658 3440 ft 114 kts 28°
2026-04-23 21:25 66.45813 25.62851 3272 ft 114 kts 29°
2026-04-23 21:25 66.46440 25.64031 3100 ft 113 kts 29°
2026-04-23 21:25 66.47068 25.65214 2929 ft 113 kts 30°
2026-04-23 21:25 66.47696 25.66396 2755 ft 112 kts 30°
2026-04-23 21:26 66.48325 25.67577 2583 ft 113 kts 29°
2026-04-23 21:26 66.48951 25.68754 2424 ft 116 kts 30°
2026-04-23 21:26 66.49593 25.69974 2237 ft 114 kts 30°
2026-04-23 21:26 66.50225 25.71174 2066 ft 113 kts 30°
2026-04-23 21:27 66.50847 25.72356 1899 ft 114 kts 31°
2026-04-23 21:27 66.51480 25.73556 1738 ft 114 kts 30°
2026-04-23 21:27 66.52114 25.74758 1554 ft 114 kts 30°
2026-04-23 21:27 66.52742 25.75944 1374 ft 114 kts 31°
2026-04-23 21:28 66.53388 25.77165 1190 ft 118 kts 31°
2026-04-23 21:28 66.54054 25.78423 1007 ft 122 kts 33°
2026-04-23 21:28 66.54735 25.79721 820 ft 123 kts 32°
2026-04-23 21:28 66.55422 25.81033 659 ft 124 kts 30°
2026-04-23 21:29 66.56070 25.82236 611 ft 87 kts 38°
2026-04-23 21:29 66.56308 25.82711 619 ft 1 kts 38°
2026-04-23 21:29 66.56385 25.82859 620 ft 19 kts 36°
2026-04-23 21:29 66.56488 25.83083 618 ft 18 kts 41°
2026-04-23 21:30 66.56598 25.83326 616 ft 23 kts 59°
2026-04-23 21:30 66.56563 25.83606 618 ft 16 kts 138°
2026-04-23 21:30 66.56471 25.83563 617 ft 14 kts 214°
2026-04-23 21:30 66.56394 25.83424 620 ft 13 kts 216°
2026-04-23 21:31 66.56328 25.83296 620 ft 12 kts 218°
2026-04-23 21:31 66.56267 25.83179 622 ft 10 kts 217°
2026-04-23 21:31 66.56209 25.83068 621 ft 13 kts 217°
2026-04-23 21:31 66.56127 25.82910 619 ft 20 kts 218°
2026-04-23 21:32 66.56007 25.82712 610 ft 14 kts 184°
2026-04-23 21:32 66.55921 25.82818 608 ft 14 kts 160°
2026-04-23 21:32 66.55903 25.82834 608 ft 0 kts 160°